W0JRT-6 Weather Reports


time (UTC)temp
C
wind
direction
speed
KPH
gust
KPH
rain 1hr
cm
rain 24hr
cm
rain mn
cm
humidity
%
barometer
mb
20260906174001 34 105 0.0 4.8 0.00 0.00 0.00 50 1006.9
20260906171954 34 163 3.2 9.7 0.00 0.00 0.00 47 1007.1
20260906171004 34 189 0.0 1.6 0.00 0.00 0.00 48 1007.3
20260906163950 33 157 1.6 6.4 0.00 0.00 0.00 50 1008.0
20260906160954 33 87 3.2 6.4 0.00 0.00 0.00 51 1007.9
20260906160004 33 94 0.0 6.4 0.00 0.00 0.00 52 1008.0
20260906154953 32 165 1.6 4.8 0.00 0.00 0.00 52 1007.8
20260906153954 32 109 1.6 9.7 0.00 0.00 0.00 54 1007.9
20260906152950 32 146 1.6 6.4 0.00 0.00 0.00 55 1007.9
20260906150953 31 194 4.8 8.0 0.00 0.00 0.00 57 1008.1
20260906144951 31 192 3.2 6.4 0.00 0.00 0.00 59 1008.5
20260906135953 28 29 3.2 8.0 0.00 0.00 0.00 68 1009.3
20260906134952 28 40 3.2 6.4 0.00 0.00 0.00 70 1009.5
20260906133951 27 33 0.0 0.0 0.00 0.00 0.00 73 1009.7
20260906130954 24 33 0.0 0.0 0.00 0.00 0.00 92 1010.0
20260906125954 23 33 0.0 0.0 0.00 0.00 0.00 94 1010.0
20260906124951 22 33 0.0 0.0 0.00 0.00 0.00 95 1010.1
20260906122950 22 33 0.0 0.0 0.00 0.00 0.00 96 1009.9
20260906120956 21 33 0.0 0.0 0.00 0.00 0.00 96 1009.9
20260906112950 21 33 0.0 3.2 0.00 0.00 0.00 95 1009.6
20260906103957 22 163 0.0 0.0 0.00 0.00 0.00 95 1009.2
20260906102956 22 163 0.0 0.0 0.00 0.00 0.00 95 1009.1
20260906101953 22 163 0.0 0.0 0.00 0.00 0.00 95 1009.1
20260906100957 22 163 0.0 0.0 0.00 0.00 0.00 95 1009.1
20260906095955 22 163 0.0 0.0 0.00 0.00 0.00 95 1009.0
20260906094955 22 163 0.0 0.0 0.00 0.00 0.00 95 1009.0
20260906093957 22 163 0.0 0.0 0.00 0.00 0.00 95 1009.0
20260906092956 22 163 0.0 0.0 0.00 0.00 0.00 95 1009.0
20260906090956 22 163 0.0 0.0 0.00 0.00 0.00 95 1008.8
20260906085956 22 163 0.0 0.0 0.00 0.00 0.00 95 1008.8
20260906084003 22 163 0.0 0.0 0.00 0.00 0.00 95 1008.6
20260906083002 22 163 0.0 0.0 0.00 0.00 0.00 95 1008.6
20260906073002 23 163 0.0 0.0 0.00 0.00 0.00 94 1008.4
20260906062950 23 163 0.0 0.0 0.00 0.00 0.00 93 1008.6
20260906061951 23 163 0.0 0.0 0.00 0.00 0.00 93 1008.6
20260906061003 23 163 0.0 0.0 0.00 0.00 0.00 93 1008.7
20260906054951 24 163 0.0 0.0 0.00 0.00 0.00 92 1008.6
20260906053951 24 163 0.0 0.0 0.00 0.00 0.00 92 1008.7
20260906052004 24 163 0.0 0.0 0.00 0.00 0.00 91 1008.7
20260906050951 24 163 0.0 0.0 0.00 0.00 0.00 90 1008.6
20260906050005 25 163 0.0 0.0 0.00 0.00 0.00 90 1008.6
20260906044957 25 163 0.0 0.0 0.00 0.00 0.00 90 1008.5
20260906043953 25 163 0.0 0.0 0.00 0.00 0.00 89 1008.5
20260906042955 25 163 0.0 0.0 0.00 0.00 0.00 89 1008.4
20260906041953 25 163 0.0 0.0 0.00 0.00 0.00 89 1008.5
20260906040953 25 163 0.0 0.0 0.00 0.00 0.00 88 1008.4
20260906035951 25 163 0.0 0.0 0.00 0.00 0.00 87 1008.2
20260906033951 25 163 0.0 0.0 0.00 0.00 0.00 86 1008.1
20260906032952 25 163 0.0 0.0 0.00 0.00 0.00 86 1007.9
20260906030955 26 163 0.0 0.0 0.00 0.00 0.00 85 1007.7
20260906025951 26 163 0.0 0.0 0.00 0.00 0.00 84 1007.5
20260906024950 26 163 0.0 0.0 0.00 0.00 0.00 83 1007.3
20260906023953 26 163 0.0 0.0 0.00 0.00 0.00 82 1007.2
20260906021957 26 163 0.0 0.0 0.00 0.00 0.00 81 1006.7
20260906020957 27 163 0.0 0.0 0.00 0.00 0.00 79 1006.6
20260906015952 27 163 0.0 0.0 0.00 0.00 0.00 78 1006.4
20260906014957 27 163 0.0 0.0 0.00 0.00 0.00 74 1006.1
20260906013949 28 163 0.0 0.0 0.00 0.00 0.00 72 1006.0
20260906012956 28 163 0.0 0.0 0.00 0.00 0.00 70 1005.8
20260906010957 29 163 0.0 0.0 0.00 0.00 0.00 65 1005.4
20260906004950 30 163 0.0 0.0 0.00 0.00 0.00 64 1005.1
20260906003955 31 163 0.0 0.0 0.00 0.00 0.00 61 1004.9
20260906001950 32 163 0.0 0.0 0.00 0.00 0.00 57 1004.7
20260906000949 32 163 0.0 0.0 0.00 0.00 0.00 55 1004.4
20260905235949 32 163 0.0 0.0 0.00 0.00 0.00 53 1004.2
20260905233952 33 163 0.0 0.0 0.00 0.00 0.00 50 1003.9
20260905225954 36 163 0.0 0.0 0.00 0.00 0.00 38 1003.5
20260905225005 36 163 0.0 8.0 0.00 0.00 0.00 34 1003.2
20260905223958 36 88 0.0 8.0 0.00 0.00 0.00 33 1003.3
20260905220951 37 137 0.0 4.8 0.00 0.00 0.00 35 1003.5
20260905214953 36 66 1.6 4.8 0.00 0.00 0.00 35 1003.6
20260905213950 37 191 3.2 9.7 0.00 0.00 0.00 31 1003.8
20260905210950 37 7 3.2 6.4 0.00 0.00 0.00 31 1004.1
20260905203959 37 153 0.0 0.0 0.00 0.00 0.00 31 1004.4
20260905202952 36 153 0.0 0.0 0.00 0.00 0.00 34 1004.5
20260905200957 36 154 1.6 8.0 0.00 0.00 0.00 33 1004.7
20260905195956 36 180 4.8 12.9 0.00 0.00 0.00 34 1004.9
20260905194956 36 94 3.2 9.7 0.00 0.00 0.00 36 1004.9
20260905193950 36 49 1.6 9.7 0.00 0.00 0.00 35 1004.9
20260905193001 36 181 1.6 8.0 0.00 0.00 0.00 35 1004.8
20260905191959 36 201 3.2 12.9 0.00 0.00 0.00 33 1004.9
20260905190949 36 164 4.8 11.3 0.00 0.00 0.00 34 1004.9
20260905185949 36 165 3.2 14.5 0.00 0.00 0.00 34 1005.0
20260905184950 36 171 6.4 14.5 0.00 0.00 0.00 33 1005.1
20260905182953 36 153 4.8 11.3 0.00 0.00 0.00 35 1005.4
20260905180955 36 291 9.7 16.1 0.00 0.00 0.00 36 1005.5